Station CLBP4 - 9752235 - Culebra, PR Image indicating link to RSS feed of recent meteorological observations for station CLBP4


Conditions at CLBP4 as of
(10:48 pm AST on 06/23/2024)
0248 GMT on 06/24/2024:
     

Click on the graph icon in the table below to see a time series plot of the last five days of that observation.

5-day plot - Atmospheric Pressure Atmospheric Pressure (PRES):30.00 in
5-day plot - Air Temperature Air Temperature (ATMP): 84.4 °F
5-day plot - Water Temperature Water Temperature (WTMP): 86.4 °F
NOS Water Level Observation Network Water Level
Previous observations
TIME
(AST)
5-day plot - Wind Direction
WDIR
 
5-day plot - Wind Speed
WSPD
kts
5-day plot - Wind Gust
GST
kts
5-day plot - Wave Height
WVHT
ft
5-day plot - Dominant Wave Period
DPD
sec
5-day plot - Average Wave Period
APD
sec
5-day plot - Mean Wave Direction
MWD
 
5-day plot - Atmospheric Pressure
PRES
in
5-day plot - Pressure Tendency
PTDY
in
5-day plot - Air Temperature
ATMP
°F
5-day plot - Water Temperature
WTMP
°F
5-day plot - Dew Point
DEWP
°F
5-day plot - Salinity
SAL
psu
5-day plot - Visibility
VIS
nmi
5-day plot - Tide (above MLLW)
TIDE
ft
2024-06-23 10:42 pm-------30.00- 84.4 86.4----
2024-06-23 10:36 pm-------30.00- 84.2 86.4----
2024-06-23 10:30 pm-------30.00- 84.2 86.4----
2024-06-23 10:24 pm-------30.00- 84.0 86.4----
2024-06-23 10:18 pm-------30.00- 84.2 86.4----
2024-06-23 10:12 pm-------30.00- 83.8 86.4----
2024-06-23 10:06 pm-------30.00- 83.8 86.4----
2024-06-23 10:00 pm-------30.00+0.04 83.8 86.4----
2024-06-23 09:54 pm-------29.99- 84.4 86.4----
2024-06-23 09:48 pm-------29.99-- 86.4----
2024-06-23 09:42 pm-------29.99-- 86.4----
2024-06-23 09:36 pm-------29.99-- 86.4----
2024-06-23 09:30 pm-------29.99-------
2024-06-23 09:24 pm-------29.99-------
2024-06-23 09:18 pm-------29.98- 83.8 86.4----
2024-06-23 09:12 pm-------29.98- 83.8 86.4----
2024-06-23 09:06 pm-------29.98- 83.8 86.4----
2024-06-23 09:00 pm-------29.98+0.03 84.0 86.4----
2024-06-23 08:54 pm-------29.98- 83.7 86.4----
2024-06-23 08:48 pm-------29.98- 83.8 86.4----
2024-06-23 08:42 pm-------29.98- 83.8 86.4----
2024-06-23 08:36 pm-------29.98- 83.8 86.4----
2024-06-23 08:30 pm-------29.98- 83.8 86.4----
2024-06-23 08:24 pm-------29.98- 83.7 86.4----
2024-06-23 08:18 pm-------29.97- 83.8 86.4----
2024-06-23 08:12 pm-------29.97- 83.7 86.4----
2024-06-23 08:06 pm-------29.97- 83.8 86.4----
2024-06-23 08:00 pm-------29.97+0.01 84.0 86.4----
2024-06-23 07:54 pm-------29.97- 84.0 86.4----
2024-06-23 07:48 pm-------29.97- 84.0 86.4----
2024-06-23 07:42 pm-------29.96- 83.8 86.5----
2024-06-23 07:36 pm-------29.96- 83.8 86.5----
2024-06-23 07:30 pm-------29.96- 84.0 86.5----
2024-06-23 07:24 pm-------29.96- 84.2 86.5----
2024-06-23 07:18 pm-------29.96-- 86.7----
2024-06-23 07:12 pm-------29.96-- 86.7----
2024-06-23 07:06 pm-------29.96-- 86.7----
2024-06-23 07:00 pm-------29.96+0.00------
2024-06-23 06:54 pm-------29.96-------
2024-06-23 06:48 pm-------29.96- 85.6 86.7----
2024-06-23 06:42 pm-------29.96- 85.8 86.7----
2024-06-23 06:36 pm-------29.96- 86.2 86.7----
2024-06-23 06:30 pm-------29.96- 86.2 86.7----
2024-06-23 06:24 pm-------29.96- 85.8 86.7----
2024-06-23 06:18 pm-------29.96-- 86.9----
2024-06-23 06:12 pm-------29.96-- 86.9----
2024-06-23 06:06 pm-------29.96-- 86.9----
2024-06-23 06:00 pm-------29.95-0.03 88.2 86.9----
2024-06-23 05:54 pm-------29.96- 88.5 86.9----
2024-06-23 05:48 pm-------29.96- 88.3 86.9----
2024-06-23 05:42 pm-------29.96- 88.7 86.9----
2024-06-23 05:36 pm-------29.96- 88.2 86.9----
2024-06-23 05:30 pm-------29.96- 87.6 86.9----
2024-06-23 05:24 pm-------29.96- 87.6 86.9----
2024-06-23 05:18 pm-------29.96- 88.0 86.9----
2024-06-23 05:12 pm-------29.96- 88.0 86.9----
2024-06-23 05:06 pm-------29.96- 87.3 86.9----
2024-06-23 05:00 pm-------29.96-0.02 87.1 87.1----
2024-06-23 04:54 pm-------29.95- 86.9 87.1----
2024-06-23 04:48 pm-------29.95- 86.7 87.1----
2024-06-23 04:42 pm-------29.96- 86.9 87.1----
2024-06-23 04:36 pm-------29.96- 87.1 87.1----
2024-06-23 04:30 pm-------29.96- 86.9 87.1----
2024-06-23 04:24 pm-------29.96- 86.2 87.1----
2024-06-23 04:18 pm-------29.96- 86.4 87.1----
2024-06-23 04:12 pm-------29.96- 86.2 87.1----
2024-06-23 04:06 pm-------29.97- 86.5 87.3----
2024-06-23 04:00 pm-------29.97-0.02 86.7 87.3----
2024-06-23 03:54 pm-------29.97- 86.7 87.3----
2024-06-23 03:48 pm-------29.97- 86.7 87.3----
2024-06-23 03:42 pm-------29.97- 88.2 87.3----
2024-06-23 03:36 pm-------29.97- 88.3 87.3----
2024-06-23 03:30 pm-------29.97- 87.8 87.3----
2024-06-23 03:24 pm-------29.98- 87.3 87.3----
2024-06-23 03:18 pm-------29.98- 87.1 87.3----
2024-06-23 03:12 pm-------29.98- 86.7 87.1----
2024-06-23 03:06 pm-------29.98- 88.0 87.1----
2024-06-23 03:00 pm-------29.98-0.01 88.3 87.1----
2024-06-23 02:54 pm-------29.98- 88.0 87.1----
2024-06-23 02:48 pm-------29.98- 88.0 86.7----
2024-06-23 02:42 pm-------29.98- 86.9 86.9----
2024-06-23 02:36 pm-------29.98- 86.4 87.1----
2024-06-23 02:30 pm-------29.98- 86.0 87.1----
2024-06-23 02:24 pm-------29.98- 87.6 86.7----
2024-06-23 02:18 pm-------29.97- 88.9 86.9----
2024-06-23 02:12 pm-------29.97- 88.5 86.9----
2024-06-23 02:06 pm-------29.98- 89.2 86.7----
2024-06-23 02:00 pm-------29.98-0.02 89.4 86.7----
2024-06-23 01:54 pm-------29.98- 90.5 86.7----
2024-06-23 01:48 pm-------29.98- 89.2 86.7----
2024-06-23 01:42 pm-------29.98- 88.0 86.7----
2024-06-23 01:36 pm-------29.99- 87.8 86.5----
2024-06-23 01:30 pm-------29.99- 87.3 86.5----
2024-06-23 01:24 pm-------29.99- 86.9 86.5----
2024-06-23 01:18 pm-------29.99- 87.3 86.7----
2024-06-23 01:12 pm-------29.99- 87.1 86.7----
2024-06-23 01:06 pm-------29.99- 87.8 86.5----
2024-06-23 01:00 pm-------29.99- 87.8 86.5----
2024-06-23 12:54 pm-------29.99- 87.3 86.5----
2024-06-23 12:48 pm-------29.99- 88.2 86.5----
2024-06-23 12:42 pm-------29.99- 88.9 86.7----
2024-06-23 12:36 pm-------29.99- 89.4 86.5----
2024-06-23 12:30 pm-------30.00- 90.7 86.5----
2024-06-23 12:24 pm-------30.00- 90.7 86.5----
2024-06-23 12:18 pm-------30.00- 90.3 86.5----
2024-06-23 12:12 pm-------30.00- 90.9 86.5----
2024-06-23 12:06 pm-------30.00- 89.6 86.5----
2024-06-23 12:00 pm-------30.00- 89.4 86.5----
2024-06-23 11:54 am-------29.99- 89.2 86.5----
2024-06-23 11:48 am-------29.99- 90.0 86.4----
2024-06-23 11:42 am-------29.99- 89.8 86.4----
2024-06-23 11:36 am-------30.00- 90.0 86.4----
2024-06-23 11:30 am-------29.99- 89.6 86.4----
2024-06-23 11:24 am-------29.99- 88.7 86.4----
2024-06-23 11:18 am-------29.99-- 86.4----
2024-06-23 11:12 am-------29.99-- 86.4----
2024-06-23 11:06 am-------30.00-- 86.4----
2024-06-23 11:00 am-------30.00+0.02------
2024-06-23 10:54 am-------30.00-------
2024-06-23 10:48 am-------30.00- 89.2 86.2----
2024-06-23 10:42 am-------30.00- 90.3 86.2----
2024-06-23 10:36 am-------30.00- 89.8 86.2----
2024-06-23 10:30 am-------30.00- 89.4 86.2----
2024-06-23 10:24 am-------30.00- 88.9 86.2----
2024-06-23 10:18 am-------30.00-- 86.2----
2024-06-23 10:12 am-------30.00-- 86.2----
2024-06-23 10:06 am-------29.99-- 86.0----
2024-06-23 10:00 am--------- 88.7 86.0----
2024-06-23 09:54 am--------- 88.7 86.0----
2024-06-23 09:48 am-------29.99- 89.1 86.0----
2024-06-23 09:42 am-------29.99- 89.1 86.0----
2024-06-23 09:36 am-------29.99- 89.1 86.0----
2024-06-23 09:30 am-------29.99-- 86.0----
2024-06-23 09:24 am-------29.98-- 86.0----
2024-06-23 09:18 am-------29.98- 87.6 86.0----
2024-06-23 09:12 am-------29.98- 87.3 86.0----
2024-06-23 09:06 am-------29.98- 87.3 86.0----
2024-06-23 09:00 am---------- 85.8----
2024-06-23 08:54 am---------- 85.8----
2024-06-23 08:48 am-------29.98- 87.1 85.8----
2024-06-23 08:42 am-------29.98- 87.3 85.8----
2024-06-23 08:36 am-------29.98- 86.9 85.8----
2024-06-23 08:30 am-------29.98- 86.5 85.8----
2024-06-23 08:24 am-------29.98- 85.6 85.8----
2024-06-23 08:18 am-------29.98-- 85.8----
2024-06-23 08:12 am-------29.97-- 85.8----
2024-06-23 08:06 am-------29.97-- 85.8----
2024-06-23 08:00 am-------29.97+0.03- 85.8----
2024-06-23 07:54 am-------29.97-- 85.8----
2024-06-23 07:48 am-------29.97- 86.2 85.8----
2024-06-23 07:42 am-------29.97- 85.8 85.8----
2024-06-23 07:36 am-------29.97- 85.6 85.8----
2024-06-23 07:30 am-------29.97- 85.6 86.0----
2024-06-23 07:24 am-------29.97- 85.5 86.0----
2024-06-23 07:18 am-------29.97-- 85.8----
2024-06-23 07:12 am-------29.97-- 85.8----
2024-06-23 07:06 am-------29.97-- 85.8----
2024-06-23 07:00 am--------- 83.8 85.8----
2024-06-23 06:54 am--------- 83.7 85.8----
2024-06-23 06:48 am-------29.96- 83.1 85.8----
2024-06-23 06:42 am-------29.97- 82.9 85.8----
2024-06-23 06:36 am-------29.96- 82.8 85.8----
2024-06-23 06:30 am-------29.96- 82.4 85.8----
2024-06-23 06:24 am-------29.96- 82.2 85.8----
2024-06-23 06:18 am-------29.96- 82.6 85.8----
2024-06-23 06:12 am-------29.96- 82.8 85.8----
2024-06-23 06:06 am-------29.96- 82.6 85.8----
2024-06-23 06:00 am-------29.96+0.02- 85.8----
2024-06-23 05:54 am-------29.96-- 85.8----
2024-06-23 05:48 am-------29.95- 82.8 85.8----
2024-06-23 05:42 am-------29.95- 82.8 85.8----
2024-06-23 05:36 am-------29.95- 82.6 85.8----
2024-06-23 05:30 am-------29.95- 82.6 85.8----
2024-06-23 05:24 am-------29.95- 82.8 85.8----
2024-06-23 05:18 am-------29.95- 82.9 85.8----
2024-06-23 05:12 am-------29.95- 82.9 85.8----
2024-06-23 05:06 am-------29.95- 82.9 85.8----
2024-06-23 05:00 am-------29.95- 83.3 85.8----
2024-06-23 04:54 am-------29.94- 82.9 85.8----
2024-06-23 04:48 am-------29.94- 82.9 85.8----
2024-06-23 04:42 am-------29.94- 82.9 85.8----
2024-06-23 04:36 am-------29.94- 82.8 85.8----
2024-06-23 04:30 am-------29.94- 82.9 86.0----
2024-06-23 04:24 am-------29.94- 82.6 86.0----
2024-06-23 04:18 am-------29.94- 82.6 86.0----
2024-06-23 04:12 am-------29.94- 82.8 86.0----
2024-06-23 04:06 am-------29.94- 82.9 86.0----
2024-06-23 04:00 am-------29.94-0.01 82.9 86.0----
2024-06-23 03:54 am-------29.94- 82.9 86.0----
2024-06-23 03:48 am-------29.94- 82.8 86.0----
2024-06-23 03:42 am-------29.94- 82.9 86.0----
2024-06-23 03:36 am-------29.94- 82.9 86.0----
2024-06-23 03:30 am-------29.94- 82.8 86.0----
2024-06-23 03:24 am-------29.94- 82.8 86.0----
2024-06-23 03:18 am-------29.93- 82.8 86.0----
2024-06-23 03:12 am-------29.93- 82.6 86.0----
2024-06-23 03:06 am-------29.93- 82.6 86.0----
2024-06-23 03:00 am-------29.93-0.04 82.8 86.0----
2024-06-23 02:54 am-------29.93- 82.6 86.0----
2024-06-23 02:48 am-------29.93- 82.6 86.0----
2024-06-23 02:42 am-------29.93- 82.8 86.0----
2024-06-23 02:36 am-------29.93- 82.8 86.0----
2024-06-23 02:30 am-------29.93- 82.6 86.0----
2024-06-23 02:24 am-------29.93- 82.4 86.0----
2024-06-23 02:18 am-------29.93- 82.2 86.0----
2024-06-23 02:12 am-------29.94- 82.4 86.0----
2024-06-23 02:06 am-------29.93- 82.4 86.0----
2024-06-23 02:00 am--------- 82.4 86.0----
2024-06-23 01:54 am--------- 82.4 86.0----
2024-06-23 01:48 am-------29.94- 82.4 86.0----
2024-06-23 01:42 am-------29.94- 82.4 86.0----
2024-06-23 01:36 am-------29.94- 82.4 86.0----
2024-06-23 01:30 am-------29.95-- 86.0----
2024-06-23 01:24 am-------29.95-- 86.0----
2024-06-23 01:18 am-------29.95- 82.4 86.0----
2024-06-23 01:12 am-------29.95- 82.6 86.0----
2024-06-23 01:06 am-------29.96- 82.2 86.0----
2024-06-23 01:00 am-------29.96-0.02 82.2 86.0----
2024-06-23 12:54 am-------29.96- 82.0 86.0----
2024-06-23 12:48 am-------29.96- 81.9 86.0----
2024-06-23 12:42 am-------29.96- 81.7 86.0----
2024-06-23 12:36 am-------29.96- 81.3 86.0----
2024-06-23 12:30 am-------29.96- 81.3 86.0----
2024-06-23 12:24 am-------29.96- 81.5 86.0----
2024-06-23 12:18 am-------29.96-- 86.0----
2024-06-23 12:12 am-------29.96-- 86.0----
2024-06-23 12:06 am-------29.97-- 86.0----
2024-06-23 12:00 am-------29.97+0.01 81.9 86.0----
2024-06-22 11:54 pm-------29.97- 81.7 86.0----
2024-06-22 11:48 pm-------29.98- 81.1 86.0----
2024-06-22 11:42 pm-------29.98- 81.0 86.0----
2024-06-22 11:36 pm-------29.98- 81.7 86.2----
2024-06-22 11:30 pm-------29.98- 81.9 86.2----
2024-06-22 11:24 pm-------29.97- 81.7 86.2----
2024-06-22 11:18 pm-------29.97- 81.9 86.2----
2024-06-22 11:12 pm-------29.97- 81.9 86.2----
2024-06-22 11:06 pm-------29.97- 81.7 86.2----
2024-06-22 11:00 pm-------29.97+0.03- 86.2----
2024-06-22 10:54 pm-------29.97-- 86.2----